M I D A S
Marine Information and Data Acquisition System
Tripno 933 of the Zeeleeuw from 2005-08-23 06:48:49 to 2005-08-23 13:22:24
Back to CruiseResearch ActivitiesStationsMapUnderway DataData graphs

EquipmentUnitsComments
TimeDGPSUTC
LatitudeDGPSDM.mWGS84
LongitudeDGPSDM.mWGS84
SpeedMeteo Stationm/sRelative wind speed
DirectionMeteo StationdegRelative wind direction
TemperatureMeteo Stationdeg CelciusAir temperature
PressureMeteo StationPaAtmospheric pressure
HumidityMeteo Station%Relative humidity
Missing or incorrect values are displayed as -999
Metereological data collected by the RV Zeeleeuw from 2005-08-23 06:32:17 to 2005-08-23 13:21:20
Time Latitude Longitude Speed Direction Temperature Pressure Humidity
2005-08-23 06:33 51°13.616 2°56.011 8.3 227 16.7 101520 94
2005-08-23 06:34 51°13.655 2°55.906 10.9 221 16.6 101510 93
2005-08-23 06:35 51°13.708 2°55.792 9.3 236 16.6 101530 92
2005-08-23 06:36 51°13.725 2°55.754 9.8 287 16.6 101520 92
2005-08-23 06:37 51°13.711 2°55.717 9.8 283 16.6 101520 91
2005-08-23 06:38 51°13.743 2°55.722 9.6 17 16.6 101500 91
2005-08-23 06:39 51°13.807 2°55.653 12.9 23 16.6 101490 91
2005-08-23 06:40 51°13.923 2°55.561 12.1 15 16.7 101500 92
2005-08-23 06:41 51°14.066 2°55.46 13.5 24 16.8 101500 93
2005-08-23 06:42 51°14.21 2°55.334 14.8 22 16.8 101490 92
2005-08-23 06:43 51°14.327 2°55.124 16.3 36 16.7 101500 92
2005-08-23 06:44 51°14.469 2°54.906 16.5 17 16.7 101480 92
2005-08-23 06:45 51°14.645 2°54.719 17.2 19 16.7 101470 91
2005-08-23 06:46 51°14.825 2°54.535 18.7 18 16.7 101470 91
2005-08-23 06:47 51°15.006 2°54.358 16.4 16 16.7 101490 91
2005-08-23 06:48 51°15.191 2°54.178 17.8 15 16.7 101470 91
2005-08-23 06:49 51°15.375 2°53.994 16.2 14 16.7 101500 92
2005-08-23 06:50 51°15.556 2°53.804 18.8 16 16.7 101480 92
2005-08-23 06:51 51°15.736 2°53.617 17.1 17 16.6 101490 92
2005-08-23 06:52 51°15.917 2°53.432 16.5 22 16.6 101490 91
2005-08-23 06:53 51°16.098 2°53.248 17.8 16 16.6 101500 92
2005-08-23 06:54 51°16.281 2°53.07 17.5 14 16.6 101490 91
2005-08-23 06:55 51°16.467 2°52.897 17.1 22 16.6 101490 92
2005-08-23 06:56 51°16.656 2°52.732 16.1 15 16.7 101500 92
2005-08-23 06:57 51°16.848 2°52.579 15.8 10 16.7 101500 92
2005-08-23 06:58 51°17.047 2°52.453 17.3 11 16.7 101490 92
2005-08-23 06:59 51°17.251 2°52.349 16.9 7 16.7 101490 91
2005-08-23 07:00 51°17.459 2°52.333 16.9 354 16.7 101500 91
2005-08-23 07:01 51°17.664 2°52.332 15.5 348 16.7 101480 90
2005-08-23 07:02 51°17.866 2°52.383 15.6 345 16.7 101490 91
2005-08-23 07:03 51°18.052 2°52.507 16.3 337 16.7 101490 91
2005-08-23 07:04 51°18.21 2°52.7 14.7 326 16.8 101490 91
2005-08-23 07:05 51°18.327 2°52.955 14.9 317 16.8 101490 91
2005-08-23 07:06 51°18.402 2°53.251 14.2 313 16.7 101480 91
2005-08-23 07:07 51°18.481 2°53.545 15.1 41 16.6 101490 91
2005-08-23 07:08 51°18.567 2°53.832 16.1 317 16.7 101480 91
2005-08-23 07:09 51°18.657 2°54.118 14.4 322 16.6 101480 91
2005-08-23 07:10 51°18.744 2°54.406 13.7 316 16.7 101490 91
2005-08-23 07:11 51°18.828 2°54.695 14.2 317 16.7 101490 91
2005-08-23 07:12 51°18.912 2°54.988 15.1 227 16.7 101500 91
2005-08-23 07:13 51°18.998 2°55.278 15 229 16.7 101490 91
2005-08-23 07:14 51°19.087 2°55.567 15.2 313 16.7 101490 91
2005-08-23 07:15 51°19.173 2°55.86 12.5 315 16.7 101490 91
2005-08-23 07:16 51°19.255 2°56.152 14.8 227 16.7 101500 91
2005-08-23 07:17 51°19.338 2°56.449 14.4 316 16.7 101490 91
2005-08-23 07:18 51°19.419 2°56.743 14.6 227 16.7 101490 90
2005-08-23 07:19 51°19.5 2°57.037 15.1 318 16.7 101510 90
2005-08-23 07:20 51°19.583 2°57.332 14.2 228 16.7 101480 90
2005-08-23 07:21 51°19.662 2°57.63 14.8 318 16.7 101480 91
2005-08-23 07:22 51°19.741 2°57.926 15.2 312 16.8 101500 91
2005-08-23 07:23 51°19.82 2°58.221 13.1 312 16.8 101490 91
2005-08-23 07:24 51°19.898 2°58.516 15.1 319 16.8 101500 91
2005-08-23 07:25 51°19.978 2°58.806 12.5 313 16.8 101500 91
2005-08-23 07:26 51°20.056 2°59.1 14.9 313 16.8 101510 91
2005-08-23 07:27 51°20.132 2°59.392 13.6 320 16.8 101500 91
2005-08-23 07:28 51°20.207 2°59.679 14.3 313 16.8 101490 91
2005-08-23 07:29 51°20.281 2°59.97 14.8 315 16.8 101490 91
2005-08-23 07:30 51°20.359 3°0.254 13.8 228 16.8 101500 91
2005-08-23 07:31 51°20.432 3°0.539 14.2 316 16.8 101500 91
2005-08-23 07:32 51°20.505 3°0.819 12.9 316 16.7 101500 91
2005-08-23 07:33 51°20.58 3°1.102 14.9 312 16.8 101500 91
2005-08-23 07:34 51°20.653 3°1.387 10.6 312 16.8 101500 91
2005-08-23 07:35 51°20.728 3°1.666 14.1 313 16.8 101490 92
2005-08-23 07:36 51°20.8 3°1.948 13.5 309 16.7 101500 91
2005-08-23 07:37 51°20.874 3°2.228 13.6 312 16.7 101510 92
2005-08-23 07:38 51°20.947 3°2.504 14.5 230 16.8 101490 92
2005-08-23 07:39 51°21.017 3°2.78 12.1 316 16.8 101500 92
2005-08-23 07:40 51°21.087 3°3.055 12.6 228 16.8 101500 92
2005-08-23 07:41 51°21.156 3°3.331 14.8 312 16.8 101500 93
2005-08-23 07:42 51°21.225 3°3.601 13.1 310 16.8 101510 92
2005-08-23 07:43 51°21.295 3°3.873 14.1 310 16.9 101510 93
2005-08-23 07:44 51°21.362 3°4.144 12.8 308 16.9 101500 92
2005-08-23 07:45 51°21.431 3°4.415 14.1 313 16.8 101510 92
2005-08-23 07:46 51°21.498 3°4.686 14.2 308 16.8 101520 92
2005-08-23 07:47 51°21.568 3°4.957 14.6 316 16.9 101500 92
2005-08-23 07:48 51°21.639 3°5.227 13.4 312 16.8 101520 92
2005-08-23 07:49 51°21.705 3°5.5 14.9 312 16.9 101510 92
2005-08-23 07:50 51°21.765 3°5.779 14.7 314 16.9 101500 92
2005-08-23 07:51 51°21.814 3°6.063 16.3 228 16.9 101520 92
2005-08-23 07:52 51°21.864 3°6.339 14.5 309 16.8 101520 91
2005-08-23 07:53 51°21.894 3°6.621 13 298 16.8 101530 92
2005-08-23 07:54 51°21.917 3°6.901 14.6 304 16.8 101530 92
2005-08-23 07:55 51°21.951 3°7.18 14.2 311 16.8 101520 92
2005-08-23 07:56 51°21.981 3°7.457 12.2 310 16.8 101520 92
2005-08-23 07:57 51°22.011 3°7.74 12.3 314 16.8 101530 92
2005-08-23 07:58 51°22.037 3°8.022 11.7 306 16.8 101530 92
2005-08-23 07:59 51°22.068 3°8.304 12.4 227 16.8 101530 92
2005-08-23 08:00 51°22.099 3°8.587 12.9 313 16.8 101540 92
2005-08-23 08:01 51°22.132 3°8.873 15.9 300 16.8 101520 92
2005-08-23 08:02 51°22.162 3°9.161 13 309 16.8 101540 91
2005-08-23 08:03 51°22.194 3°9.451 15.7 306 16.8 101530 92
2005-08-23 08:04 51°22.231 3°9.734 13.2 308 16.8 101520 91
2005-08-23 08:05 51°22.266 3°10.014 15 301 16.8 101530 91
2005-08-23 08:06 51°22.3 3°10.294 12.2 306 16.8 101550 92
2005-08-23 08:07 51°22.337 3°10.577 12.3 312 16.8 101520 91
2005-08-23 08:08 51°22.378 3°10.858 14.5 303 16.8 101510 92
2005-08-23 08:09 51°22.417 3°11.131 12.6 311 16.8 101530 92
2005-08-23 08:10 51°22.457 3°11.405 14 303 16.8 101540 92
2005-08-23 08:11 51°22.496 3°11.682 15.9 307 16.9 101530 92
2005-08-23 08:12 51°22.535 3°11.959 14 306 16.8 101540 92
2005-08-23 08:13 51°22.577 3°12.238 12.8 302 16.9 101540 92
2005-08-23 08:14 51°22.613 3°12.513 15.4 312 16.9 101530 92
2005-08-23 08:15 51°22.655 3°12.789 14.5 307 16.8 101510 92
2005-08-23 08:16 51°22.692 3°13.06 13.3 315 16.8 101530 92
2005-08-23 08:17 51°22.796 3°13.265 15.8 338 16.8 101520 92
2005-08-23 08:18 51°22.991 3°13.256 16.3 358 16.8 101520 92
2005-08-23 08:19 51°23.196 3°13.203 18.4 357 16.8 101540 93
2005-08-23 08:20 51°23.395 3°13.158 15.5 352 16.7 101530 92
2005-08-23 08:21 51°23.601 3°13.113 16.7 356 16.6 101540 92
2005-08-23 08:22 51°23.804 3°13.079 16.5 351 16.7 101530 92
2005-08-23 08:23 51°23.995 3°13.112 15.6 332 16.7 101530 93
2005-08-23 08:24 51°24.168 3°13.238 16 333 16.7 101510 92
2005-08-23 08:25 51°24.341 3°13.36 16.7 334 16.7 101530 92
2005-08-23 08:26 51°24.519 3°13.452 18 355 16.8 101540 92
2005-08-23 08:27 51°24.719 3°13.348 18.9 10 16.8 101550 92
2005-08-23 08:28 51°24.909 3°13.127 18.9 8 16.9 101550 92
2005-08-23 08:29 51°25.102 3°12.911 20 15 16.8 101540 92
2005-08-23 08:30 51°25.218 3°12.607 16.4 57 16.7 101520 91
2005-08-23 08:31 51°25.199 3°12.204 11.9 73 16.6 101530 91
2005-08-23 08:32 51°25.161 3°11.802 14.1 66 16.7 101540 92
2005-08-23 08:33 51°25.12 3°11.397 12.9 68 16.7 101540 92
2005-08-23 08:34 51°25.079 3°10.999 10.7 73 16.6 101560 93
2005-08-23 08:35 51°25.038 3°10.597 13.2 61 16.6 101540 92
2005-08-23 08:36 51°24.994 3°10.208 12.5 67 16.6 101560 91
2005-08-23 08:37 51°24.95 3°9.815 14 56 16.6 101550 91
2005-08-23 08:38 51°24.899 3°9.435 13 65 16.6 101560 91
2005-08-23 08:39 51°24.852 3°9.052 13.3 68 16.5 101550 92
2005-08-23 08:40 51°24.807 3°8.666 13.1 67 16.4 101550 93
2005-08-23 08:41 51°24.761 3°8.278 13.1 60 16.3 101570 93
2005-08-23 08:42 51°24.72 3°7.894 12.9 69 16.2 101560 93
2005-08-23 08:43 51°24.707 3°7.512 15.9 38 16.2 101570 94
2005-08-23 08:44 51°24.869 3°7.346 14.6 360 16.2 101600 94
2005-08-23 08:45 51°25.065 3°7.29 17.1 4 16.2 101590 95
2005-08-23 08:46 51°25.261 3°7.226 16.7 359 16.2 101590 95
2005-08-23 08:47 51°25.46 3°7.162 16.2 3 16.2 101600 95
2005-08-23 08:48 51°25.659 3°7.1 18.3 357 16.3 101600 95
2005-08-23 08:49 51°25.858 3°7.04 17 6 16.3 101570 95
2005-08-23 08:50 51°26.043 3°7.084 16.5 321 16.3 101570 95
2005-08-23 08:51 51°26.121 3°7.354 14.7 41 16.2 101560 94
2005-08-23 08:52 51°26.205 3°7.616 15.3 320 16.2 101580 94
2005-08-23 08:53 51°26.299 3°7.887 15.8 317 16.2 101550 94
2005-08-23 08:54 51°26.395 3°8.159 17.2 228 16.2 101580 94
2005-08-23 08:55 51°26.488 3°8.433 17.2 317 16.2 101590 94
2005-08-23 08:56 51°26.579 3°8.714 16.4 320 16.3 101570 94
2005-08-23 08:57 51°26.711 3°8.909 16.9 358 16.2 101580 93
2005-08-23 08:58 51°26.888 3°8.788 16.3 22 16.3 101600 93
2005-08-23 08:59 51°27.064 3°8.623 18.6 15 16.3 101600 92
2005-08-23 09:00 51°27.24 3°8.453 18.2 14 16.3 101610 92
2005-08-23 09:01 51°27.414 3°8.286 17.9 9 16.3 101620 92
2005-08-23 09:02 51°27.587 3°8.117 16.3 15 16.2 101610 91
2005-08-23 09:03 51°27.765 3°7.964 18.1 10 16.1 101600 91
2005-08-23 09:04 51°27.945 3°7.818 18.4 13 16.1 101610 91
2005-08-23 09:05 51°28.127 3°7.671 17 10 16.1 101600 90
2005-08-23 09:06 51°28.313 3°7.519 16.6 12 16.2 101600 90
2005-08-23 09:07 51°28.497 3°7.37 18.2 12 16.3 101610 89
2005-08-23 09:08 51°28.679 3°7.218 18.9 18 16.3 101610 89
2005-08-23 09:09 51°28.86 3°7.067 17.2 12 16.3 101600 88
2005-08-23 09:10 51°29.043 3°6.915 16.8 14 16.4 101620 87
2005-08-23 09:11 51°29.224 3°6.766 16.5 12 16.5 101620 87
2005-08-23 09:12 51°29.402 3°6.618 17.9 6 16.5 101620 86
2005-08-23 09:13 51°29.575 3°6.447 14.5 14 16.6 101630 86
2005-08-23 09:14 51°29.745 3°6.271 15.8 16 16.6 101610 86
2005-08-23 09:15 51°29.913 3°6.097 15.3 15 16.5 101610 84
2005-08-23 09:16 51°30.076 3°5.929 15.9 20 16.5 101610 84
2005-08-23 09:17 51°30.243 3°5.758 15.7 16 16.4 101610 84
2005-08-23 09:18 51°30.419 3°5.583 16.7 15 16.5 101620 85
2005-08-23 09:19 51°30.59 3°5.411 15.4 14 16.5 101610 84
2005-08-23 09:20 51°30.761 3°5.238 16.6 19 16.6 101610 84
2005-08-23 09:21 51°30.93 3°5.065 15.2 15 16.5 101630 83
2005-08-23 09:22 51°31.099 3°4.889 18.2 19 16.5 101600 82
2005-08-23 09:23 51°31.273 3°4.715 16.8 13 16.5 101620 82
2005-08-23 09:24 51°31.443 3°4.544 16.5 11 16.5 101610 81
2005-08-23 09:25 51°31.614 3°4.37 17 11 16.6 101630 82
2005-08-23 09:26 51°31.784 3°4.197 17 17 16.6 101620 81
2005-08-23 09:27 51°31.956 3°4.026 16 13 16.7 101620 82
2005-08-23 09:28 51°32.128 3°3.854 16.4 14 16.7 101620 82
2005-08-23 09:29 51°32.297 3°3.682 17.3 13 16.7 101620 82
2005-08-23 09:30 51°32.468 3°3.515 16.4 14 16.7 101620 81
2005-08-23 09:31 51°32.639 3°3.348 16.8 9 16.6 101620 79
2005-08-23 09:32 51°32.812 3°3.182 15.4 14 16.7 101620 80
2005-08-23 09:33 51°32.88 3°2.882 12.2 64 16.6 101610 80
2005-08-23 09:34 51°32.789 3°2.53 10.3 80 16.5 101640 80
2005-08-23 09:35 51°32.7 3°2.167 12.1 65 16.6 101630 82
2005-08-23 09:36 51°32.613 3°1.806 9.5 77 16.5 101610 82
2005-08-23 09:37 51°32.534 3°1.44 10.9 69 16.5 101600 83
2005-08-23 09:38 51°32.462 3°1.074 12.9 64 16.5 101630 83
2005-08-23 09:39 51°32.389 3°0.707 10.9 71 16.5 101620 82
2005-08-23 09:40 51°32.314 3°0.336 11.9 63 16.5 101640 82
2005-08-23 09:41 51°32.238 2°59.966 11.4 64 16.5 101630 83
2005-08-23 09:42 51°32.164 2°59.593 10.5 60 16.5 101620 82
2005-08-23 09:43 51°32.092 2°59.217 11.1 71 16.5 101630 82
2005-08-23 09:44 51°32.016 2°58.84 11.3 73 16.5 101630 83
2005-08-23 09:45 51°31.939 2°58.465 12.9 66 16.4 101630 81
2005-08-23 09:46 51°31.866 2°58.085 12.2 64 16.5 101620 81
2005-08-23 09:47 51°31.787 2°57.707 13.3 63 16.5 101630 82
2005-08-23 09:48 51°31.716 2°57.339 9.9 72 16.4 101620 81
2005-08-23 09:49 51°31.642 2°56.972 10.3 69 16.5 101630 81
2005-08-23 09:50 51°31.565 2°56.613 11.9 60 16.5 101640 80
2005-08-23 09:51 51°31.487 2°56.251 13 59 16.4 101630 79
2005-08-23 09:52 51°31.483 2°55.905 15.5 22 16.4 101620 78
2005-08-23 09:53 51°31.635 2°55.895 16.7 338 16.5 101620 80
2005-08-23 09:54 51°31.762 2°56.082 14.7 334 16.5 101590 78
2005-08-23 09:55 51°31.892 2°56.281 14.7 335 16.5 101580 78
2005-08-23 09:56 51°32.005 2°56.501 13.5 327 16.5 101600 79
2005-08-23 09:57 51°32.129 2°56.713 15.8 328 16.5 101610 78
2005-08-23 09:58 51°32.254 2°56.916 16.1 331 16.5 101590 77
2005-08-23 09:59 51°32.382 2°57.119 15.2 329 16.4 101610 76
2005-08-23 10:00 51°32.513 2°57.322 14.9 333 16.4 101630 76
2005-08-23 10:01 51°32.643 2°57.525 14.8 337 16.5 101620 77
2005-08-23 10:02 51°32.772 2°57.729 15.9 335 16.5 101630 77
2005-08-23 10:03 51°32.9 2°57.932 16 332 16.5 101630 76
2005-08-23 10:04 51°33.035 2°58.132 14.5 334 16.5 101620 75
2005-08-23 10:05 51°33.166 2°58.331 14.1 330 16.5 101620 75
2005-08-23 10:06 51°33.295 2°58.543 14.6 328 16.5 101610 75
2005-08-23 10:07 51°33.424 2°58.756 14.6 328 16.5 101610 74
2005-08-23 10:08 51°33.551 2°58.972 16.5 335 16.5 101620 75
2005-08-23 10:09 51°33.672 2°59.181 14.4 335 16.4 101600 74
2005-08-23 10:10 51°33.798 2°59.396 15.6 329 16.4 101600 74
2005-08-23 10:11 51°33.923 2°59.606 14.6 335 16.4 101610 74
2005-08-23 10:12 51°34.053 2°59.82 14 330 16.4 101600 75
2005-08-23 10:13 51°34.175 3°0.04 14.9 325 16.5 101600 75
2005-08-23 10:14 51°34.298 3°0.263 14.3 329 16.5 101600 75
2005-08-23 10:15 51°34.421 3°0.485 14.8 321 16.5 101610 75
2005-08-23 10:16 51°34.543 3°0.709 13.8 323 16.5 101600 76
2005-08-23 10:17 51°34.664 3°0.933 15.6 330 16.5 101610 75
2005-08-23 10:18 51°34.826 3°1.004 15.9 17 16.5 101620 75
2005-08-23 10:19 51°34.971 3°0.803 14.6 23 16.6 101610 74
2005-08-23 10:20 51°35.11 3°0.564 16.1 23 16.5 101630 73
2005-08-23 10:21 51°35.228 3°0.298 14 35 16.6 101630 74
2005-08-23 10:22 51°35.172 2°59.936 9.4 73 16.5 101630 74
2005-08-23 10:23 51°35.057 2°59.575 10 81 16.4 101640 74
2005-08-23 10:24 51°34.935 2°59.222 12.7 82 16.4 101650 75
2005-08-23 10:25 51°34.805 2°58.875 9.4 72 16.4 101650 74
2005-08-23 10:26 51°34.673 2°58.524 7.9 75 16.4 101660 76
2005-08-23 10:27 51°34.539 2°58.174 11.1 69 16.3 101660 74
2005-08-23 10:28 51°34.406 2°57.828 12.8 67 16.4 101650 76
2005-08-23 10:29 51°34.276 2°57.489 10.2 72 16.4 101660 76
2005-08-23 10:30 51°34.143 2°57.139 9.1 80 16.3 101660 75
2005-08-23 10:31 51°34.012 2°56.797 7.2 76 16.3 101660 73
2005-08-23 10:32 51°33.882 2°56.454 12.7 61 16.4 101670 75
2005-08-23 10:33 51°33.754 2°56.115 10.4 66 16.4 101670 76
2005-08-23 10:34 51°33.626 2°55.776 10.7 61 16.3 101660 76
2005-08-23 10:35 51°33.491 2°55.439 9.3 71 16.3 101670 75
2005-08-23 10:36 51°33.352 2°55.099 9.9 69 16.3 101670 75
2005-08-23 10:37 51°33.219 2°54.762 8.7 78 16.3 101680 75
2005-08-23 10:38 51°33.084 2°54.425 8.7 76 16.3 101680 74
2005-08-23 10:39 51°32.949 2°54.093 8.6 79 16.3 101690 75
2005-08-23 10:40 51°32.813 2°53.751 8.9 71 16.3 101680 75
2005-08-23 10:41 51°32.674 2°53.416 10.4 82 16.3 101690 74
2005-08-23 10:42 51°32.535 2°53.081 11.4 68 16.4 101700 77
2005-08-23 10:43 51°32.395 2°52.752 10.8 70 16.4 101690 77
2005-08-23 10:44 51°32.25 2°52.425 8.7 74 16.3 101680 76
2005-08-23 10:45 51°32.108 2°52.09 9.4 62 16.3 101700 75
2005-08-23 10:46 51°31.968 2°51.757 10.1 77 16.3 101700 74
2005-08-23 10:47 51°31.829 2°51.425 8 69 16.3 101710 74
2005-08-23 10:48 51°31.689 2°51.092 9.2 82 16.3 101710 74
2005-08-23 10:49 51°31.55 2°50.756 8.3 82 16.3 101710 75
2005-08-23 10:50 51°31.414 2°50.421 10.8 60 16.3 101700 76
2005-08-23 10:51 51°31.277 2°50.091 10.1 82 16.3 101700 76
2005-08-23 10:52 51°31.138 2°49.758 8.8 73 16.3 101690 76
2005-08-23 10:53 51°30.999 2°49.425 8.7 70 16.3 101700 76
2005-08-23 10:54 51°30.861 2°49.089 10 69 16.2 101700 74
2005-08-23 10:55 51°30.72 2°48.756 9.6 67 16.3 101710 75
2005-08-23 10:56 51°30.585 2°48.42 9.1 78 16.3 101710 74
2005-08-23 10:57 51°30.448 2°48.082 9.6 80 16.3 101710 76
2005-08-23 10:58 51°30.31 2°47.749 9.4 76 16.3 101700 75
2005-08-23 10:59 51°30.172 2°47.414 10 75 16.3 101700 75
2005-08-23 11:00 51°30.037 2°47.081 11.1 67 16.2 101690 76
2005-08-23 11:01 51°29.899 2°46.745 8.5 76 16.2 101700 75
2005-08-23 11:02 51°29.766 2°46.412 10 77 16.3 101710 76
2005-08-23 11:03 51°29.634 2°46.076 9.5 77 16.3 101710 75
2005-08-23 11:04 51°29.516 2°45.733 12.6 59 16.3 101700 75
2005-08-23 11:05 51°29.524 2°45.377 13 27 16.3 101690 76
2005-08-23 11:06 51°29.678 2°45.171 15.6 14 16.3 101690 76
2005-08-23 11:07 51°29.861 2°45.05 13.3 11 16.4 101700 75
2005-08-23 11:08 51°30.047 2°44.984 15.6 351 16.3 101690 74
2005-08-23 11:09 51°30.204 2°45.099 12.4 331 16.4 101680 75
2005-08-23 11:10 51°30.315 2°45.331 13.1 328 16.4 101680 74
2005-08-23 11:11 51°30.421 2°45.574 13.4 333 16.4 101690 75
2005-08-23 11:12 51°30.524 2°45.815 13 323 16.4 101700 74
2005-08-23 11:13 51°30.628 2°46.061 12.6 325 16.4 101680 74
2005-08-23 11:14 51°30.737 2°46.307 10.8 328 16.4 101680 73
2005-08-23 11:15 51°30.842 2°46.551 12.7 325 16.4 101690 74
2005-08-23 11:16 51°30.946 2°46.794 13.5 319 16.4 101700 74
2005-08-23 11:17 51°31.047 2°47.037 13.5 320 16.4 101690 74
2005-08-23 11:18 51°31.15 2°47.281 12.4 322 16.4 101700 75
2005-08-23 11:19 51°31.251 2°47.524 13.8 321 16.4 101690 75
2005-08-23 11:20 51°31.35 2°47.771 13.3 323 16.4 101690 74
2005-08-23 11:21 51°31.453 2°48.015 12.4 329 16.4 101690 74
2005-08-23 11:22 51°31.552 2°48.261 13.5 324 16.4 101680 74
2005-08-23 11:23 51°31.649 2°48.511 12.1 326 16.4 101690 74
2005-08-23 11:24 51°31.744 2°48.759 11.5 320 16.3 101690 75
2005-08-23 11:25 51°31.836 2°49.004 13.4 318 16.4 101700 75
2005-08-23 11:26 51°31.93 2°49.254 11.4 333 16.4 101700 75
2005-08-23 11:27 51°32.025 2°49.506 12.8 44 16.4 101680 76
2005-08-23 11:28 51°32.119 2°49.752 12.1 327 16.4 101700 75
2005-08-23 11:29 51°32.217 2°50.005 13.7 326 16.4 101690 75
2005-08-23 11:30 51°32.314 2°50.253 11.7 317 16.3 101700 74
2005-08-23 11:31 51°32.413 2°50.507 13.5 324 16.3 101700 74
2005-08-23 11:32 51°32.509 2°50.755 11.6 323 16.3 101700 76
2005-08-23 11:33 51°32.608 2°51.005 11 317 16.4 101700 76
2005-08-23 11:34 51°32.707 2°51.257 11.9 326 16.4 101700 76
2005-08-23 11:35 51°32.806 2°51.51 13.3 320 16.4 101700 76
2005-08-23 11:36 51°32.904 2°51.761 12.4 327 16.4 101680 75
2005-08-23 11:37 51°33.005 2°52.008 12.9 323 16.3 101690 76
2005-08-23 11:38 51°33.107 2°52.265 12.5 324 16.3 101690 76
2005-08-23 11:39 51°33.211 2°52.513 12 322 16.3 101670 76
2005-08-23 11:40 51°33.314 2°52.767 12.2 329 16.3 101690 75
2005-08-23 11:41 51°33.415 2°53.019 11.5 330 16.3 101700 75
2005-08-23 11:42 51°33.506 2°53.28 10 311 16.3 101690 76
2005-08-23 11:43 51°33.47 2°53.585 5.9 296 16.4 101700 77
2005-08-23 11:44 51°33.297 2°53.809 4.1 275 16.4 101730 77
2005-08-23 11:45 51°33.093 2°53.973 2.3 276 16.6 101730 77
2005-08-23 11:46 51°32.885 2°54.134 2.4 265 16.7 101730 77
2005-08-23 11:47 51°32.677 2°54.297 2 291 16.8 101740 76
2005-08-23 11:48 51°32.466 2°54.46 2.1 275 16.9 101740 75
2005-08-23 11:49 51°32.258 2°54.629 1.2 287 17 101740 74
2005-08-23 11:50 51°32.046 2°54.788 1.3 301 17.2 101740 74
2005-08-23 11:51 51°31.827 2°54.929 2.3 269 17.4 101740 74
2005-08-23 11:52 51°31.61 2°55.08 1 293 17.5 101740 74
2005-08-23 11:53 51°31.392 2°55.231 1 253 17.6 101740 73
2005-08-23 11:54 51°31.174 2°55.384 0.5 306 17.7 101740 73
2005-08-23 11:55 51°30.955 2°55.54 1.4 271 17.8 101740 72
2005-08-23 11:56 51°30.741 2°55.68 0.6 351 17.9 101740 72
2005-08-23 11:57 51°30.525 2°55.801 2.2 271 18 101740 72
2005-08-23 11:58 51°30.305 2°55.915 2.4 275 18.2 101740 71
2005-08-23 11:59 51°30.085 2°56.037 3.1 294 18.1 101740 70
2005-08-23 12:00 51°29.869 2°56.167 4.4 274 18.1 101740 69
2005-08-23 12:01 51°29.65 2°56.295 3.2 277 18 101740 68
2005-08-23 12:02 51°29.429 2°56.426 1.8 300 18 101750 68
2005-08-23 12:03 51°29.212 2°56.552 2.6 299 17.9 101740 68
2005-08-23 12:04 51°28.996 2°56.692 3.6 276 18 101740 68
2005-08-23 12:05 51°28.773 2°56.815 1.3 311 18 101740 68
2005-08-23 12:06 51°28.535 2°56.81 2.6 96 18 101750 69
2005-08-23 12:07 51°28.299 2°56.711 2.9 72 17.9 101740 67
2005-08-23 12:08 51°28.065 2°56.598 2.6 79 17.6 101750 70
2005-08-23 12:09 51°27.831 2°56.496 6 85 17.3 101740 72
2005-08-23 12:10 51°27.595 2°56.394 4.4 66 17 101740 72
2005-08-23 12:11 51°27.359 2°56.295 4.1 73 16.9 101740 75
2005-08-23 12:12 51°27.119 2°56.191 4.3 77 16.7 101740 76
2005-08-23 12:13 51°26.881 2°56.091 3.5 81 16.6 101750 75
2005-08-23 12:14 51°26.642 2°55.995 3.5 71 16.5 101750 76
2005-08-23 12:15 51°26.41 2°55.896 3.7 71 16.5 101750 76
2005-08-23 12:16 51°26.171 2°55.804 4.3 67 16.5 101750 77
2005-08-23 12:17 51°25.932 2°55.713 3.4 75 16.5 101750 76
2005-08-23 12:18 51°25.697 2°55.621 2.9 78 16.5 101750 76
2005-08-23 12:19 51°25.464 2°55.533 3.8 76 16.5 101760 76
2005-08-23 12:20 51°25.233 2°55.448 3.1 98 16.5 101760 76
2005-08-23 12:21 51°25.002 2°55.362 4.8 91 16.6 101750 77
2005-08-23 12:22 51°24.773 2°55.281 4.6 88 16.6 101750 76
2005-08-23 12:23 51°24.543 2°55.186 2.8 97 16.6 101750 75
2005-08-23 12:24 51°24.316 2°55.094 4.6 94 16.6 101750 75
2005-08-23 12:25 51°24.086 2°55.003 3.2 79 16.6 101760 76
2005-08-23 12:26 51°23.853 2°54.905 4.3 90 16.6 101760 75
2005-08-23 12:27 51°23.618 2°54.802 3.6 81 16.6 101760 77
2005-08-23 12:28 51°23.386 2°54.703 4.2 67 16.6 101760 77
2005-08-23 12:29 51°23.157 2°54.606 5.9 85 16.6 101760 76
2005-08-23 12:30 51°22.927 2°54.507 5.1 91 16.6 101760 76
2005-08-23 12:31 51°22.698 2°54.411 4.5 99 16.5 101760 74
2005-08-23 12:32 51°22.47 2°54.319 5.3 86 16.6 101760 74
2005-08-23 12:33 51°22.244 2°54.224 3.2 69 16.6 101760 75
2005-08-23 12:34 51°22.02 2°54.128 2.3 83 16.6 101770 75
2005-08-23 12:35 51°21.791 2°54.033 3.2 74 16.6 101770 75
2005-08-23 12:36 51°21.56 2°53.94 5 97 16.7 101760 77
2005-08-23 12:37 51°21.329 2°53.839 5 87 16.6 101770 76
2005-08-23 12:38 51°21.102 2°53.741 5.1 88 16.7 101760 76
2005-08-23 12:39 51°20.874 2°53.644 5.4 89 16.6 101770 74
2005-08-23 12:40 51°20.645 2°53.541 3.4 98 16.6 101770 74
2005-08-23 12:41 51°20.418 2°53.437 4.7 97 16.7 101780 75
2005-08-23 12:42 51°20.188 2°53.334 2.9 97 16.7 101770 75
2005-08-23 12:43 51°19.956 2°53.222 5.4 103 16.7 101780 75
2005-08-23 12:44 51°19.727 2°53.11 3.3 98 16.7 101770 74
2005-08-23 12:45 51°19.497 2°53.008 4 82 16.7 101770 75
2005-08-23 12:46 51°19.27 2°52.901 3.7 98 16.7 101770 74
2005-08-23 12:47 51°19.045 2°52.8 2.2 118 16.8 101780 75
2005-08-23 12:48 51°18.818 2°52.7 2.8 74 16.8 101770 75
2005-08-23 12:49 51°18.593 2°52.597 3.8 86 16.8 101770 75
2005-08-23 12:50 51°18.364 2°52.494 4.2 89 16.8 101770 76
2005-08-23 12:51 51°18.139 2°52.39 3.6 80 16.8 101780 76
2005-08-23 12:52 51°17.911 2°52.326 2.9 82 16.7 101780 76
2005-08-23 12:53 51°17.679 2°52.311 3 99 16.7 101780 75
2005-08-23 12:54 51°17.451 2°52.304 2.1 93 16.6 101780 75
2005-08-23 12:55 51°17.221 2°52.315 2.8 87 16.7 101780 76
2005-08-23 12:56 51°16.999 2°52.405 1 102 16.5 101780 74
2005-08-23 12:57 51°16.783 2°52.524 0.3 96 16.5 101780 74
2005-08-23 12:58 51°16.572 2°52.662 0.5 344 16.6 101780 74
2005-08-23 12:59 51°16.362 2°52.813 1.2 332 16.8 101780 75
2005-08-23 13:00 51°16.155 2°52.963 0.9 316 17 101780 75
2005-08-23 13:01 51°15.947 2°53.101 1.3 353 17.2 101780 74
2005-08-23 13:02 51°15.738 2°53.248 2.4 339 17.3 101780 74
2005-08-23 13:03 51°15.531 2°53.405 3.8 279 17.4 101780 73
2005-08-23 13:04 51°15.33 2°53.556 4 295 17.4 101780 73
2005-08-23 13:05 51°15.133 2°53.729 3.1 288 17.3 101780 73
2005-08-23 13:06 51°14.971 2°53.889 5.2 269 17.3 101780 72
2005-08-23 13:07 51°14.815 2°54.076 4.2 282 17.2 101780 72
2005-08-23 13:08 51°14.667 2°54.311 4.9 304 17.1 101770 72
2005-08-23 13:09 51°14.54 2°54.585 6.1 297 17.1 101770 72
2005-08-23 13:10 51°14.428 2°54.854 4 288 17.1 101780 72
2005-08-23 13:11 51°14.348 2°55.071 4.8 264 17 101780 72
2005-08-23 13:12 51°14.261 2°55.249 3 291 17.1 101780 72
2005-08-23 13:13 51°14.171 2°55.388 2.7 231 17.1 101780 72
2005-08-23 13:14 51°14.043 2°55.482 2.4 214 17.1 101780 71
2005-08-23 13:15 51°13.906 2°55.578 1.4 275 17 101780 71
2005-08-23 13:16 51°13.769 2°55.695 2.4 253 17.1 101780 72
2005-08-23 13:17 51°13.691 2°55.828 3.3 254 17.1 101780 71
2005-08-23 13:18 51°13.64 2°55.948 4.1 240 17.2 101780 71
2005-08-23 13:19 51°13.608 2°56.055 3.5 242 17.2 101780 71
2005-08-23 13:20 51°13.597 2°56.093 2.9 204 17.3 101780 70